Skip Page Navigation
NASA JPL Caltech
NASA Logo - Jet Propulsion Laboratory + View the NASA Portal
+ Center for Near-Earth Object Studies
JPL Home Earth Solar System Stars & Galaxies Technology
JPL Solar System Dynamics
BODIES ORBITS EPHEMERIDES TOOLS PHYSICAL DATA DISCOVERY FAQ SITE MAP
IMPORTANT: The SSD Announcement email list is now available. Major changes are coming in the near future, including possible hostname and/or URL changes. To be notified of such changes, subscribe to this email list.

Please visit this page for more details.


JPL Small-Body Database Browser
Search: [ help ]  
382008 (2010 XE83)
Classification: Main-belt Asteroid          SPK-ID: 2382008
Ephemeris | Orbit Diagram | Orbital Elements | Mission Design | Physical Parameters | Discovery Circumstances ]

[ show orbit diagram ]
Orbital Elements at Epoch 2459000.5 (2020-May-31.0) TDB
Reference: JPL 12 (heliocentric ecliptic J2000)
 Element Value Uncertainty (1-sigma)   Units 
e .15773937097863 9.0906e-08  
a 2.205674523418186 3.9262e-08 au
q 1.857752811510612 2.214e-07 au
i 2.930276091085381 7.7088e-06 deg
node 229.2810960731623 0.00020772 deg
peri 163.4394899384366 0.00021174 deg
M 353.3697252651209 5.0969e-05 deg
tp 2459022.536346411013
(2020-Jun-22.03634641)
0.00016985 TDB
period 1196.494116032929
3.28
3.1948e-05
8.747e-08
d
yr
n .3008790391662006 8.0338e-09 deg/d
Q 2.55359623532576 4.5456e-08 au
  Orbit Determination Parameters
   # obs. used (total)      77  
   data-arc span      3635 days (9.95 yr)  
   first obs. used      2008-02-07  
   last obs. used      2018-01-20  
   planetary ephem.      DE431  
   SB-pert. ephem.      SB431-N16  
   condition code      0  
   norm. resid. RMS      .66262  
   source      ORB  
   producer      Otto Matic  
   solution date      2018-Feb-06 09:33:44  

Additional Information
 Earth MOID = .86405 au 
 Jupiter MOID = 2.86889 au 
 T_jup = 3.643 
[ show covariance matrix ]

Ephemeris | Orbit Diagram | Orbital Elements | Mission Design | Physical Parameters | Discovery Circumstances ]

Physical Parameter Table
Parameter Symbol Value Units Sigma Reference Notes
absolute magnitude H 18.1   n/a MPO437564  

382008 (2010 XE83)          Discovered 2008-Feb-07 by Mt. Lemmon Survey at Mount Lemmon
Reference: Last Updated: 2013-12-19

Alternate Designations
 2010 XE83 = 2008 CD122 
Ephemeris | Orbit Diagram | Orbital Elements | Mission Design | Physical Parameters | Discovery Circumstances ]
ABOUT SSD CREDITS/AWARDS PRIVACY/COPYRIGHT GLOSSARY LINKS
FirstGov 2020-May-29 14:20 UT
(server date/time)  
NASA Home Page
Site Manager:   Ryan S. Park
Webmaster  Alan B. Chamberlin